ANA1999 RPLL-RJOO

Flight info

Callsign ANA1999
Flight time 3h 23m
Altitude 37000
Route CAB2R CAB N884 ALBAX Y533 AZAMA Y579 ONC B597 RURIK Y53 MADOG Y753 IZUMI
Aircraft B38M/M-SDE1FGHILORVWXY/HB1

Departure

Time 2026-05-06 19:36
Airport Ninoy Aquino International Airport (RPLL)

Arrival

Time 2026-05-06 23:00
Airport Osaka Itami International Airport (RJOO)
Time Latitude Longitude Altitude Speed Heading
2026-05-06 19:08 14.50811 121.01241 52 ft 0 kts 332°
2026-05-06 19:26 14.50802 121.01246 50 ft 2 kts 331°
2026-05-06 19:27 14.50791 121.01253 46 ft 2 kts 330°
2026-05-06 19:27 14.50780 121.01259 49 ft 2 kts 329°
2026-05-06 19:27 14.50769 121.01266 48 ft 2 kts 328°
2026-05-06 19:27 14.50758 121.01272 51 ft 2 kts 322°
2026-05-06 19:28 14.50750 121.01282 51 ft 2 kts 292°
2026-05-06 19:28 14.50746 121.01294 49 ft 2 kts 263°
2026-05-06 19:28 14.50748 121.01304 50 ft 0 kts 239°
2026-05-06 19:31 14.50748 121.01302 50 ft 1 kts 239°
2026-05-06 19:31 14.50731 121.01280 50 ft 8 kts 230°
2026-05-06 19:31 14.50624 121.01095 48 ft 18 kts 239°
2026-05-06 19:32 14.50556 121.00972 46 ft 21 kts 240°
2026-05-06 19:32 14.50493 121.00860 46 ft 14 kts 231°
2026-05-06 19:32 14.50404 121.00810 45 ft 16 kts 199°
2026-05-06 19:32 14.50335 121.00716 43 ft 18 kts 241°
2026-05-06 19:33 14.50275 121.00610 42 ft 16 kts 238°
2026-05-06 19:33 14.50213 121.00503 41 ft 19 kts 242°
2026-05-06 19:33 14.50154 121.00392 40 ft 12 kts 240°
2026-05-06 19:33 14.50107 121.00362 40 ft 1 kts 163°
2026-05-06 19:34 14.50092 121.00371 40 ft 5 kts 151°
2026-05-06 19:34 14.50046 121.00397 39 ft 11 kts 151°
2026-05-06 19:34 14.50013 121.00444 39 ft 6 kts 51°
2026-05-06 19:34 14.50044 121.00483 39 ft 0 kts 62°
2026-05-06 19:35 14.50046 121.00487 39 ft 1 kts 62°
2026-05-06 19:35 14.50122 121.00627 40 ft 60 kts 60°
2026-05-06 19:35 14.50458 121.01230 49 ft 131 kts 59°
2026-05-06 19:36 14.50993 121.02212 188 ft 173 kts 60°
2026-05-06 19:36 14.51612 121.03295 891 ft 181 kts 59°
2026-05-06 19:36 14.52277 121.04437 1657 ft 190 kts 58°
2026-05-06 19:36 14.52979 121.05630 2468 ft 196 kts 58°
2026-05-06 19:37 14.53676 121.06864 3273 ft 207 kts 61°
2026-05-06 19:37 14.54420 121.08260 3772 ft 236 kts 61°
2026-05-06 19:37 14.55250 121.09791 4533 ft 253 kts 60°
2026-05-06 19:37 14.56148 121.11412 5345 ft 266 kts 57°
2026-05-06 19:38 14.57480 121.12745 6315 ft 271 kts 31°
2026-05-06 19:38 14.59291 121.13356 7218 ft 281 kts
2026-05-06 19:38 14.61263 121.13398 8171 ft 285 kts
2026-05-06 19:38 14.63265 121.13432 9095 ft 290 kts
2026-05-06 19:39 14.65297 121.13458 10015 ft 294 kts
2026-05-06 19:39 14.67386 121.13478 10644 ft 309 kts
2026-05-06 19:39 14.69605 121.13463 11041 ft 330 kts 356°
2026-05-06 19:39 14.71866 121.12838 11612 ft 343 kts 342°
2026-05-06 19:40 14.74143 121.12032 11796 ft 348 kts 342°
2026-05-06 19:40 14.76437 121.11222 11860 ft 348 kts 342°
2026-05-06 19:40 14.78728 121.10405 11890 ft 348 kts 342°
2026-05-06 19:40 14.81067 121.09808 12162 ft 346 kts 360°
2026-05-06 19:41 14.83421 121.10193 13017 ft 345 kts 21°
2026-05-06 19:41 14.85626 121.11219 13649 ft 352 kts 24°
2026-05-06 19:41 14.87898 121.12199 14295 ft 355 kts 23°
2026-05-06 19:41 14.90184 121.13193 14948 ft 358 kts 24°
2026-05-06 19:42 14.92490 121.14201 15583 ft 361 kts 24°
2026-05-06 19:42 14.94816 121.15221 16228 ft 364 kts 24°
2026-05-06 19:42 14.97129 121.16237 16838 ft 368 kts 24°
2026-05-06 19:42 14.99491 121.17275 17448 ft 371 kts 24°
2026-05-06 19:43 15.01875 121.18322 18027 ft 374 kts 24°
2026-05-06 19:43 15.04289 121.19383 18531 ft 378 kts 24°
2026-05-06 19:43 15.06716 121.20450 19029 ft 381 kts 24°
2026-05-06 19:43 15.09162 121.21526 19519 ft 384 kts 24°
2026-05-06 19:44 15.11628 121.22611 20003 ft 387 kts 24°
2026-05-06 19:44 15.14113 121.23705 20478 ft 389 kts 24°
2026-05-06 19:44 15.16615 121.24807 20964 ft 392 kts 24°
2026-05-06 19:44 15.19131 121.25916 21473 ft 394 kts 23°
2026-05-06 19:45 15.21663 121.27030 21909 ft 397 kts 23°
2026-05-06 19:45 15.24211 121.28152 22393 ft 399 kts 23°
2026-05-06 19:45 15.26746 121.29269 22808 ft 402 kts 23°
2026-05-06 19:45 15.29332 121.30409 23250 ft 406 kts 23°
2026-05-06 19:46 15.31942 121.31561 23643 ft 409 kts 22°
2026-05-06 19:46 15.34568 121.32719 23986 ft 412 kts 22°
2026-05-06 19:46 15.37210 121.33885 24351 ft 415 kts 22°
2026-05-06 19:46 15.39872 121.35059 24729 ft 417 kts 22°
2026-05-06 19:47 15.42313 121.36138 25067 ft 419 kts 22°
2026-05-06 19:47 15.44809 121.37240 25393 ft 422 kts 22°
2026-05-06 19:47 15.47500 121.38428 25766 ft 424 kts 22°
2026-05-06 19:47 15.50062 121.39560 26106 ft 427 kts 22°
2026-05-06 19:48 15.51906 121.40384 26352 ft 428 kts 22°
2026-05-06 19:48 15.54660 121.41599 26703 ft 431 kts 22°
2026-05-06 19:48 15.57429 121.42819 27061 ft 434 kts 22°
2026-05-06 19:48 15.60207 121.44046 27422 ft 436 kts 22°
2026-05-06 19:49 15.63008 121.45286 27772 ft 439 kts 22°
2026-05-06 19:49 15.65824 121.46531 28127 ft 441 kts 22°
2026-05-06 19:49 15.68646 121.47781 28451 ft 443 kts 22°
2026-05-06 19:49 15.71491 121.49041 28781 ft 446 kts 22°
2026-05-06 19:50 15.74357 121.50311 29105 ft 448 kts 22°
2026-05-06 19:50 15.77235 121.51586 29432 ft 450 kts 22°
2026-05-06 19:50 15.80122 121.52866 29737 ft 453 kts 21°
2026-05-06 19:50 15.83032 121.54156 30000 ft 456 kts 21°
2026-05-06 19:51 15.85960 121.55456 30280 ft 458 kts 22°
2026-05-06 19:51 15.88890 121.56755 30574 ft 459 kts 21°
2026-05-06 19:51 15.91836 121.58063 30854 ft 461 kts 21°
2026-05-06 19:51 15.94754 121.59359 31100 ft 463 kts 21°
2026-05-06 19:52 15.97729 121.60681 31346 ft 465 kts 22°
2026-05-06 19:52 16.00715 121.62007 31592 ft 467 kts 22°
2026-05-06 19:52 16.03711 121.63339 31833 ft 469 kts 22°
2026-05-06 19:52 16.06720 121.64677 32079 ft 472 kts 22°
2026-05-06 19:53 16.09743 121.66022 32332 ft 474 kts 22°
2026-05-06 19:53 16.12784 121.67375 32582 ft 475 kts 22°
2026-05-06 19:53 16.15823 121.68729 32899 ft 475 kts 22°
2026-05-06 19:53 16.18862 121.70084 33237 ft 475 kts 22°
2026-05-06 19:54 16.21897 121.71437 33572 ft 475 kts 22°
2026-05-06 19:54 16.24931 121.72790 33911 ft 474 kts 22°
2026-05-06 19:54 16.27969 121.74145 34199 ft 474 kts 22°
2026-05-06 19:54 16.30993 121.75495 34486 ft 473 kts 22°
2026-05-06 19:55 16.34021 121.76846 34764 ft 473 kts 22°
2026-05-06 19:55 16.37039 121.78194 35047 ft 472 kts 22°
2026-05-06 19:55 16.40058 121.79543 35312 ft 472 kts 22°
2026-05-06 19:55 16.43041 121.80875 35574 ft 472 kts 21°
2026-05-06 19:56 16.46056 121.82223 35851 ft 472 kts 21°
2026-05-06 19:56 16.49076 121.83574 36103 ft 472 kts 22°
2026-05-06 19:56 16.52090 121.84923 36363 ft 471 kts 21°
2026-05-06 19:56 16.55110 121.86274 36618 ft 471 kts 21°
2026-05-06 19:57 16.58120 121.87620 36859 ft 471 kts 22°
2026-05-06 19:57 16.61124 121.88964 36946 ft 471 kts 22°
2026-05-06 19:57 16.67122 121.91650 36919 ft 468 kts 21°
2026-05-06 19:58 16.73111 121.94333 36915 ft 470 kts 21°
2026-05-06 19:58 16.79121 121.97027 36922 ft 470 kts 21°
2026-05-06 19:59 16.85130 121.99722 36920 ft 470 kts 21°
2026-05-06 19:59 16.91108 122.02406 36917 ft 470 kts 21°
2026-05-06 20:00 16.97114 122.05104 36920 ft 470 kts 21°
2026-05-06 20:00 17.03140 122.07812 36926 ft 472 kts 21°
2026-05-06 20:01 17.09169 122.10524 36920 ft 471 kts 21°
2026-05-06 20:01 17.15201 122.13239 36922 ft 471 kts 21°
2026-05-06 20:02 17.21235 122.15958 36920 ft 472 kts 21°
2026-05-06 20:02 17.27227 122.18659 36923 ft 472 kts 21°
2026-05-06 20:03 17.33268 122.21383 36920 ft 473 kts 21°
2026-05-06 20:03 17.39311 122.24112 36918 ft 473 kts 21°
2026-05-06 20:04 17.45360 122.26845 36923 ft 473 kts 21°
2026-05-06 20:04 17.51398 122.29574 36914 ft 473 kts 21°
2026-05-06 20:05 17.57450 122.32312 36912 ft 473 kts 21°
2026-05-06 20:05 17.63463 122.35034 36909 ft 473 kts 21°
2026-05-06 20:06 17.69515 122.37777 36909 ft 474 kts 21°
2026-05-06 20:06 17.75556 122.40516 36898 ft 474 kts 21°
2026-05-06 20:07 17.81615 122.43265 36900 ft 474 kts 21°
2026-05-06 20:07 17.87661 122.46010 36900 ft 473 kts 21°
2026-05-06 20:08 17.93704 122.48756 36901 ft 474 kts 21°
2026-05-06 20:08 17.99746 122.51504 36901 ft 474 kts 21°
2026-05-06 20:09 18.05801 122.54259 36913 ft 473 kts 21°
2026-05-06 20:09 18.11788 122.56986 36896 ft 471 kts 21°
2026-05-06 20:10 18.17801 122.59727 36903 ft 471 kts 21°
2026-05-06 20:10 18.23815 122.62470 36895 ft 472 kts 21°
2026-05-06 20:11 18.29849 122.65224 36900 ft 474 kts 21°
2026-05-06 20:11 18.35890 122.67984 36904 ft 470 kts 21°
2026-05-06 20:12 18.41875 122.70720 36904 ft 469 kts 21°
2026-05-06 20:12 18.47863 122.73460 36903 ft 469 kts 21°
2026-05-06 20:13 18.52852 122.75744 36899 ft 469 kts 21°
2026-05-06 20:13 18.58841 122.78488 36904 ft 469 kts 21°
2026-05-06 20:14 18.64823 122.81230 36902 ft 468 kts 21°
2026-05-06 20:14 18.70791 122.83969 36904 ft 468 kts 21°
2026-05-06 20:15 18.76759 122.86710 36902 ft 468 kts 21°
2026-05-06 20:15 18.82690 122.89436 36903 ft 468 kts 21°
2026-05-06 20:16 18.88668 122.92185 36903 ft 469 kts 21°
2026-05-06 20:16 18.94649 122.94938 36903 ft 469 kts 21°
2026-05-06 20:17 19.00633 122.97694 36909 ft 469 kts 21°
2026-05-06 20:17 19.06629 123.00459 36914 ft 469 kts 21°
2026-05-06 20:18 19.12609 123.03217 36922 ft 469 kts 21°
2026-05-06 20:18 19.18538 123.05955 36904 ft 467 kts 21°
2026-05-06 20:19 19.24497 123.08709 36901 ft 468 kts 21°
2026-05-06 20:19 19.30461 123.11467 36902 ft 468 kts 21°
2026-05-06 20:20 19.36424 123.14227 36905 ft 468 kts 21°
2026-05-06 20:20 19.42392 123.16992 36906 ft 468 kts 21°
2026-05-06 20:21 19.48363 123.19760 36911 ft 468 kts 21°
2026-05-06 20:21 19.54327 123.22527 36913 ft 468 kts 21°
2026-05-06 20:22 19.60294 123.25298 36911 ft 468 kts 21°
2026-05-06 20:22 19.66265 123.28072 36917 ft 468 kts 20°
2026-05-06 20:23 19.72235 123.30849 36914 ft 469 kts 20°
2026-05-06 20:23 19.78211 123.33631 36917 ft 469 kts 20°
2026-05-06 20:24 19.84180 123.36412 36914 ft 469 kts 20°
2026-05-06 20:24 19.90155 123.39197 36927 ft 469 kts 20°
2026-05-06 20:25 19.96087 123.41966 36917 ft 468 kts 20°
2026-05-06 20:25 20.02057 123.44754 36917 ft 468 kts 20°
2026-05-06 20:26 20.08016 123.47539 36917 ft 468 kts 20°
2026-05-06 20:26 20.13981 123.50329 36917 ft 468 kts 20°
2026-05-06 20:27 20.19945 123.53121 36919 ft 467 kts 20°
2026-05-06 20:27 20.25888 123.55907 36919 ft 467 kts 20°
2026-05-06 20:28 20.31838 123.58697 36920 ft 467 kts 20°
2026-05-06 20:28 20.37752 123.61472 36923 ft 467 kts 20°
2026-05-06 20:29 20.43697 123.64265 36923 ft 466 kts 20°
2026-05-06 20:29 20.49618 123.67049 36919 ft 465 kts 20°
2026-05-06 20:30 20.58515 123.71237 36925 ft 466 kts 20°
2026-05-06 20:31 20.64458 123.74037 36921 ft 466 kts 20°
2026-05-06 20:31 20.70390 123.76834 36918 ft 465 kts 20°
2026-05-06 20:32 20.76299 123.79623 36928 ft 465 kts 20°
2026-05-06 20:32 20.82211 123.82416 36924 ft 464 kts 20°
2026-05-06 20:33 20.88089 123.85194 36923 ft 465 kts 20°
2026-05-06 20:33 20.94003 123.87993 36929 ft 464 kts 20°
2026-05-06 20:34 20.99890 123.90823 36923 ft 465 kts 24°
2026-05-06 20:34 21.05656 123.93990 36928 ft 466 kts 23°
2026-05-06 20:35 21.11435 123.97121 36932 ft 465 kts 23°
2026-05-06 20:35 21.17213 124.00247 36944 ft 466 kts 23°
2026-05-06 20:36 21.22992 124.03378 36925 ft 465 kts 23°
2026-05-06 20:36 21.28771 124.06512 36931 ft 465 kts 23°
2026-05-06 20:37 21.34547 124.09646 36927 ft 465 kts 23°
2026-05-06 20:37 21.40321 124.12782 36932 ft 465 kts 23°
2026-05-06 20:38 21.46060 124.15902 36936 ft 465 kts 23°
2026-05-06 20:38 21.51837 124.19045 36938 ft 465 kts 23°
2026-05-06 20:39 21.57615 124.22192 36943 ft 466 kts 23°
2026-05-06 20:39 21.63392 124.25341 36930 ft 466 kts 23°
2026-05-06 20:40 21.69173 124.28495 36926 ft 465 kts 23°
2026-05-06 20:40 21.74944 124.31646 36938 ft 465 kts 23°
2026-05-06 20:41 21.80724 124.34805 36943 ft 465 kts 23°
2026-05-06 20:41 21.86462 124.37944 36934 ft 465 kts 23°
2026-05-06 20:42 21.92238 124.41107 36937 ft 465 kts 23°
2026-05-06 20:42 21.98009 124.44270 36937 ft 465 kts 23°
2026-05-06 20:43 22.03781 124.47436 36943 ft 465 kts 23°
2026-05-06 20:43 22.09548 124.50603 36937 ft 465 kts 23°
2026-05-06 20:44 22.15278 124.53752 36944 ft 465 kts 23°
2026-05-06 20:44 22.21066 124.56936 36940 ft 464 kts 23°
2026-05-06 20:45 22.26789 124.60087 36941 ft 464 kts 23°
2026-05-06 20:45 22.32542 124.63258 36944 ft 465 kts 23°
2026-05-06 20:46 22.38301 124.66434 36948 ft 464 kts 23°
2026-05-06 20:46 22.44053 124.69610 36944 ft 464 kts 23°
2026-05-06 20:47 22.49809 124.72791 36944 ft 464 kts 23°
2026-05-06 20:47 22.55558 124.75971 36944 ft 465 kts 23°
2026-05-06 20:48 22.61318 124.79161 36962 ft 465 kts 22°
2026-05-06 20:48 22.67032 124.82327 36947 ft 464 kts 22°
2026-05-06 20:49 22.72779 124.85516 36947 ft 464 kts 22°
2026-05-06 20:49 22.78531 124.88710 36946 ft 464 kts 22°
2026-05-06 20:50 22.84286 124.91908 36958 ft 464 kts 22°
2026-05-06 20:50 22.90027 124.95102 36948 ft 463 kts 22°
2026-05-06 20:51 22.95753 124.98291 36950 ft 463 kts 22°
2026-05-06 20:51 23.01492 125.01489 36951 ft 464 kts 22°
2026-05-06 20:52 23.07234 125.04693 36972 ft 464 kts 22°
2026-05-06 20:52 23.12933 125.07876 36950 ft 463 kts 22°
2026-05-06 20:53 23.18659 125.11077 36953 ft 463 kts 22°
2026-05-06 20:53 23.24385 125.14281 36951 ft 463 kts 22°
2026-05-06 20:54 23.30118 125.17492 36965 ft 463 kts 22°
2026-05-06 20:54 23.35839 125.20699 36950 ft 462 kts 22°
2026-05-06 20:55 23.41546 125.23902 36956 ft 462 kts 22°
2026-05-06 20:55 23.47271 125.27116 36958 ft 462 kts 22°
2026-05-06 20:56 23.52950 125.30309 36970 ft 462 kts 22°
2026-05-06 20:56 23.58427 125.33991 36958 ft 468 kts 37°
2026-05-06 20:57 23.63409 125.38589 36937 ft 469 kts 36°
2026-05-06 20:57 23.68391 125.43204 36959 ft 470 kts 36°
2026-05-06 20:58 23.73370 125.47838 36960 ft 470 kts 36°
2026-05-06 20:58 23.78344 125.52476 36958 ft 470 kts 36°
2026-05-06 20:59 23.83284 125.57085 36960 ft 470 kts 36°
2026-05-06 20:59 23.88261 125.61734 36963 ft 470 kts 36°
2026-05-06 21:00 23.93231 125.66381 36963 ft 470 kts 36°
2026-05-06 21:00 23.98206 125.71039 36966 ft 470 kts 36°
2026-05-06 21:01 24.03164 125.75685 36967 ft 470 kts 36°
2026-05-06 21:01 24.07290 125.79554 36966 ft 470 kts 36°
2026-05-06 21:02 24.12260 125.84220 36963 ft 470 kts 36°
2026-05-06 21:02 24.17223 125.88885 36975 ft 470 kts 36°
2026-05-06 21:03 24.22178 125.93547 36965 ft 470 kts 36°
2026-05-06 21:03 24.27136 125.98216 36970 ft 470 kts 36°
2026-05-06 21:04 24.32092 126.02890 36971 ft 470 kts 36°
2026-05-06 21:04 24.37048 126.07567 36983 ft 470 kts 36°
2026-05-06 21:05 24.41993 126.12240 36975 ft 470 kts 36°
2026-05-06 21:05 24.46945 126.16924 36969 ft 470 kts 36°
2026-05-06 21:06 24.51862 126.21580 36976 ft 470 kts 36°
2026-05-06 21:06 24.56805 126.26265 36992 ft 470 kts 36°
2026-05-06 21:07 24.61750 126.30959 36974 ft 470 kts 36°
2026-05-06 21:07 24.66696 126.35658 36977 ft 470 kts 36°
2026-05-06 21:08 24.71641 126.40360 36979 ft 470 kts 36°
2026-05-06 21:08 24.76578 126.45061 36990 ft 470 kts 36°
2026-05-06 21:09 24.81522 126.49773 36980 ft 470 kts 36°
2026-05-06 21:09 24.86466 126.54491 36983 ft 470 kts 36°
2026-05-06 21:10 24.91401 126.59205 36982 ft 470 kts 36°
2026-05-06 21:10 24.96333 126.63921 36997 ft 470 kts 36°
2026-05-06 21:11 25.01233 126.68612 36976 ft 469 kts 36°
2026-05-06 21:11 25.06157 126.73331 36982 ft 469 kts 36°
2026-05-06 21:12 25.11111 126.78084 36974 ft 469 kts 36°
2026-05-06 21:12 25.15997 126.82776 37002 ft 469 kts 36°
2026-05-06 21:13 25.20914 126.87505 36988 ft 468 kts 36°
2026-05-06 21:13 25.25831 126.92238 36988 ft 469 kts 36°
2026-05-06 21:14 25.30748 126.96977 36980 ft 469 kts 36°
2026-05-06 21:14 25.35658 127.01714 36996 ft 469 kts 36°
2026-05-06 21:15 25.40553 127.06441 36988 ft 468 kts 36°
2026-05-06 21:15 25.45329 127.11060 36990 ft 469 kts 36°
2026-05-06 21:16 25.50235 127.15809 36991 ft 469 kts 36°
2026-05-06 21:16 25.55137 127.20560 37008 ft 469 kts 36°
2026-05-06 21:17 25.60010 127.25287 36987 ft 467 kts 36°
2026-05-06 21:17 25.64903 127.30040 36992 ft 468 kts 36°
2026-05-06 21:18 25.69797 127.34799 36991 ft 468 kts 36°
2026-05-06 21:18 25.74686 127.39559 36990 ft 468 kts 36°
2026-05-06 21:19 25.79578 127.44327 36994 ft 468 kts 36°
2026-05-06 21:19 25.84468 127.49098 36993 ft 468 kts 36°
2026-05-06 21:20 25.89350 127.53867 36993 ft 468 kts 36°
2026-05-06 21:20 25.94240 127.58648 37007 ft 468 kts 36°
2026-05-06 21:21 25.99117 127.63422 36991 ft 466 kts 36°
2026-05-06 21:21 26.03989 127.68196 36973 ft 467 kts 36°
2026-05-06 21:22 26.08853 127.72969 36970 ft 467 kts 36°
2026-05-06 21:22 26.13690 127.77719 36980 ft 466 kts 37°
2026-05-06 21:23 26.18830 127.81975 37017 ft 458 kts 27°
2026-05-06 21:23 26.24229 127.85758 37007 ft 459 kts 27°
2026-05-06 21:24 26.29639 127.89538 37005 ft 459 kts 27°
2026-05-06 21:24 26.35046 127.93318 36991 ft 458 kts 27°
2026-05-06 21:25 26.40445 127.97096 36997 ft 458 kts 27°
2026-05-06 21:25 26.45836 128.00873 36993 ft 457 kts 27°
2026-05-06 21:26 26.51185 128.04625 37005 ft 457 kts 27°
2026-05-06 21:26 26.56565 128.08403 36999 ft 456 kts 27°
2026-05-06 21:27 26.61939 128.12180 36998 ft 456 kts 27°
2026-05-06 21:27 26.67320 128.15968 36998 ft 457 kts 27°
2026-05-06 21:28 26.72692 128.19752 37014 ft 457 kts 27°
2026-05-06 21:28 26.78054 128.23534 36999 ft 455 kts 27°
2026-05-06 21:29 26.83420 128.27324 36976 ft 456 kts 27°
2026-05-06 21:29 26.88779 128.31113 36985 ft 456 kts 27°
2026-05-06 21:30 26.94133 128.34902 36970 ft 456 kts 27°
2026-05-06 21:30 26.99495 128.38702 36966 ft 456 kts 27°
2026-05-06 21:31 27.04854 128.42503 36968 ft 456 kts 27°
2026-05-06 21:31 27.10217 128.46311 37008 ft 456 kts 27°
2026-05-06 21:32 27.15538 128.50095 37001 ft 456 kts 27°
2026-05-06 21:32 27.23571 128.55815 36999 ft 456 kts 27°
2026-05-06 21:33 27.28928 128.59635 37016 ft 456 kts 27°
2026-05-06 21:33 27.34280 128.63455 36997 ft 455 kts 27°
2026-05-06 21:34 27.39628 128.67276 37009 ft 455 kts 27°
2026-05-06 21:34 27.44764 128.71383 36999 ft 460 kts 37°
2026-05-06 21:35 27.49553 128.76183 36998 ft 461 kts 37°
2026-05-06 21:35 27.54339 128.80984 36992 ft 461 kts 37°
2026-05-06 21:36 27.59135 128.85805 36994 ft 461 kts 37°
2026-05-06 21:36 27.63922 128.90623 37007 ft 461 kts 37°
2026-05-06 21:37 27.68696 128.95434 36994 ft 460 kts 37°
2026-05-06 21:37 27.73436 129.00217 37003 ft 460 kts 37°
2026-05-06 21:38 27.78207 129.05036 37003 ft 460 kts 37°
2026-05-06 21:38 27.82979 129.09854 37009 ft 460 kts 37°
2026-05-06 21:39 27.87757 129.14673 37001 ft 459 kts 37°
2026-05-06 21:39 27.92515 129.19477 36998 ft 459 kts 37°
2026-05-06 21:40 27.97277 129.24291 36999 ft 459 kts 37°
2026-05-06 21:40 28.02036 129.29108 37004 ft 459 kts 37°
2026-05-06 21:41 28.06795 129.33930 37002 ft 459 kts 37°
2026-05-06 21:41 28.11542 129.38747 37002 ft 458 kts 37°
2026-05-06 21:42 28.16280 129.43559 37001 ft 458 kts 37°
2026-05-06 21:42 28.21026 129.48365 37001 ft 457 kts 37°
2026-05-06 21:43 28.25745 129.53142 36998 ft 458 kts 37°
2026-05-06 21:43 28.30498 129.57960 36995 ft 458 kts 37°
2026-05-06 21:44 28.35238 129.62771 36997 ft 456 kts 37°
2026-05-06 21:44 28.39974 129.67583 36994 ft 457 kts 37°
2026-05-06 21:45 28.44967 129.71924 36988 ft 444 kts 21°
2026-05-06 21:45 28.50488 129.75155 36982 ft 447 kts 22°
2026-05-06 21:46 28.55990 129.78360 36994 ft 448 kts 22°
2026-05-06 21:46 28.61541 129.81572 37004 ft 447 kts 22°
2026-05-06 21:47 28.67081 129.84778 37002 ft 446 kts 22°
2026-05-06 21:47 28.72624 129.87990 37006 ft 447 kts 22°
2026-05-06 21:48 28.78171 129.91209 37002 ft 448 kts 22°
2026-05-06 21:48 28.83720 129.94433 37001 ft 448 kts 22°
2026-05-06 21:49 28.88331 129.97115 37001 ft 448 kts 22°
2026-05-06 21:49 28.94814 130.00891 37002 ft 448 kts 22°
2026-05-06 21:50 28.99434 130.03584 37009 ft 448 kts 23°
2026-05-06 21:50 29.04982 130.06823 37001 ft 447 kts 23°
2026-05-06 21:51 29.11432 130.10592 37000 ft 448 kts 23°
2026-05-06 21:51 29.16085 130.13315 36999 ft 448 kts 23°
2026-05-06 21:52 29.21640 130.16570 36998 ft 448 kts 23°
2026-05-06 21:52 29.27161 130.19808 37014 ft 449 kts 23°
2026-05-06 21:53 29.32575 130.23422 37020 ft 452 kts 28°
2026-05-06 21:53 29.37856 130.27335 37005 ft 451 kts 29°
2026-05-06 21:54 29.43107 130.31252 37001 ft 450 kts 29°
2026-05-06 21:54 29.48361 130.35177 37004 ft 450 kts 29°
2026-05-06 21:55 29.53619 130.39111 37004 ft 451 kts 29°
2026-05-06 21:55 29.58835 130.43018 37003 ft 451 kts 29°
2026-05-06 21:56 29.64089 130.46959 37011 ft 451 kts 29°
2026-05-06 21:56 29.69336 130.50899 37007 ft 450 kts 30°
2026-05-06 21:57 29.74574 130.54837 37013 ft 450 kts 30°
2026-05-06 21:57 29.79818 130.58786 37007 ft 450 kts 30°
2026-05-06 21:58 29.85064 130.62740 37009 ft 450 kts 30°
2026-05-06 21:58 29.90306 130.66697 37005 ft 450 kts 30°
2026-05-06 21:59 29.95548 130.70658 37017 ft 451 kts 30°
2026-05-06 21:59 30.00752 130.74597 37012 ft 451 kts 30°
2026-05-06 22:00 30.05999 130.78575 37014 ft 451 kts 30°
2026-05-06 22:00 30.11241 130.82554 37022 ft 451 kts 30°
2026-05-06 22:01 30.16499 130.86551 37022 ft 452 kts 30°
2026-05-06 22:01 30.21750 130.90548 37023 ft 452 kts 30°
2026-05-06 22:02 30.26963 130.94520 37018 ft 451 kts 30°
2026-05-06 22:02 30.32192 130.98510 37017 ft 451 kts 31°
2026-05-06 22:03 30.37443 131.02522 37021 ft 452 kts 31°
2026-05-06 22:03 30.42678 131.06527 37022 ft 452 kts 31°
2026-05-06 22:04 30.47924 131.10550 37021 ft 452 kts 31°
2026-05-06 22:04 30.53169 131.14583 37025 ft 452 kts 31°
2026-05-06 22:05 30.58399 131.18609 37021 ft 451 kts 31°
2026-05-06 22:05 30.63592 131.22612 37022 ft 452 kts 31°
2026-05-06 22:06 30.68834 131.26657 37020 ft 452 kts 31°
2026-05-06 22:06 30.74070 131.30704 37021 ft 452 kts 31°
2026-05-06 22:07 30.79305 131.34756 37025 ft 452 kts 31°
2026-05-06 22:07 30.84528 131.38803 37026 ft 451 kts 31°
2026-05-06 22:08 30.89763 131.42864 37026 ft 451 kts 31°
2026-05-06 22:08 30.94982 131.46919 37031 ft 451 kts 31°
2026-05-06 22:09 31.00214 131.50990 37028 ft 452 kts 31°
2026-05-06 22:09 31.05447 131.55066 37026 ft 452 kts 31°
2026-05-06 22:10 31.10633 131.59112 37030 ft 449 kts 31°
2026-05-06 22:10 31.15821 131.63165 37030 ft 449 kts 31°
2026-05-06 22:11 31.21010 131.67223 37028 ft 449 kts 31°
2026-05-06 22:11 31.26196 131.71284 37027 ft 449 kts 31°
2026-05-06 22:12 31.31402 131.75364 37035 ft 452 kts 32°
2026-05-06 22:12 31.36627 131.79463 37039 ft 450 kts 32°
2026-05-06 22:13 31.41809 131.83532 37030 ft 448 kts 32°
2026-05-06 22:13 31.46993 131.87609 37034 ft 451 kts 32°
2026-05-06 22:14 31.52159 131.91677 37030 ft 450 kts 32°
2026-05-06 22:14 31.57288 131.95721 37032 ft 451 kts 32°
2026-05-06 22:15 31.62507 131.99843 37044 ft 451 kts 32°
2026-05-06 22:15 31.67695 132.03944 37029 ft 449 kts 32°
2026-05-06 22:16 31.72883 132.08053 37031 ft 450 kts 32°
2026-05-06 22:16 31.78078 132.12172 37041 ft 452 kts 32°
2026-05-06 22:17 31.83294 132.16313 37034 ft 452 kts 32°
2026-05-06 22:17 31.88473 132.20431 37036 ft 452 kts 32°
2026-05-06 22:18 31.93681 132.24577 37035 ft 452 kts 32°
2026-05-06 22:18 31.98889 132.28729 37029 ft 452 kts 32°
2026-05-06 22:19 32.04094 132.32884 37028 ft 452 kts 32°
2026-05-06 22:19 32.09305 132.37050 37047 ft 454 kts 32°
2026-05-06 22:20 32.11807 132.39329 37008 ft 455 kts 44°
2026-05-06 22:20 32.13752 132.42273 37054 ft 455 kts 56°
2026-05-06 22:20 32.17204 132.48570 37029 ft 457 kts 56°
2026-05-06 22:21 32.20596 132.54941 37032 ft 459 kts 57°
2026-05-06 22:21 32.23960 132.61330 37042 ft 459 kts 57°
2026-05-06 22:22 32.27326 132.67739 37054 ft 459 kts 57°
2026-05-06 22:22 32.30691 132.74157 37033 ft 459 kts 57°
2026-05-06 22:23 32.34052 132.80579 37043 ft 460 kts 57°
2026-05-06 22:23 32.37391 132.86971 37037 ft 459 kts 57°
2026-05-06 22:24 32.40748 132.93407 37054 ft 460 kts 57°
2026-05-06 22:24 32.44103 132.99851 37043 ft 459 kts 57°
2026-05-06 22:25 32.47460 133.06310 37039 ft 462 kts 57°
2026-05-06 22:25 32.50837 133.12817 37044 ft 464 kts 58°
2026-05-06 22:26 32.54209 133.19327 37037 ft 463 kts 57°
2026-05-06 22:26 32.57587 133.25861 37028 ft 467 kts 58°
2026-05-06 22:27 32.61007 133.32486 37038 ft 472 kts 58°
2026-05-06 22:27 32.64415 133.39097 37044 ft 467 kts 57°
2026-05-06 22:28 32.67740 133.45731 37036 ft 469 kts 59°
2026-05-06 22:28 32.71065 133.52380 37045 ft 473 kts 59°
2026-05-06 22:29 32.74417 133.59091 37048 ft 471 kts 59°
2026-05-06 22:29 32.77748 133.65774 37027 ft 473 kts 59°
2026-05-06 22:30 32.81132 133.72573 37038 ft 479 kts 59°
2026-05-06 22:30 32.84510 133.79384 37052 ft 474 kts 59°
2026-05-06 22:31 32.87833 133.86098 37035 ft 473 kts 59°
2026-05-06 22:31 32.91197 133.92906 37047 ft 479 kts 59°
2026-05-06 22:32 32.94571 133.99745 37055 ft 476 kts 59°
2026-05-06 22:32 32.97907 134.06522 37024 ft 476 kts 60°
2026-05-06 22:33 32.99567 134.09898 36667 ft 470 kts 59°
2026-05-06 22:33 33.01195 134.13212 35988 ft 471 kts 59°
2026-05-06 22:33 33.02848 134.16579 35364 ft 470 kts 59°
2026-05-06 22:33 33.04490 134.19925 34893 ft 465 kts 58°
2026-05-06 22:34 33.06315 134.22932 34335 ft 461 kts 45°
2026-05-06 22:34 33.08612 134.25583 33689 ft 459 kts 41°
2026-05-06 22:34 33.10967 134.28144 33133 ft 456 kts 40°
2026-05-06 22:34 33.13338 134.30640 32681 ft 451 kts 40°
2026-05-06 22:35 33.15684 134.33074 32230 ft 446 kts 40°
2026-05-06 22:35 33.18026 134.35483 31751 ft 442 kts 40°
2026-05-06 22:35 33.20354 134.37867 31221 ft 440 kts 39°
2026-05-06 22:35 33.22668 134.40236 30715 ft 437 kts 40°
2026-05-06 22:36 33.24968 134.42591 30223 ft 434 kts 40°
2026-05-06 22:36 33.27254 134.44932 29669 ft 432 kts 40°
2026-05-06 22:36 33.29527 134.47264 29155 ft 429 kts 40°
2026-05-06 22:36 33.31783 134.49579 28694 ft 425 kts 40°
2026-05-06 22:37 33.34014 134.51869 28227 ft 421 kts 39°
2026-05-06 22:37 33.36197 134.54112 27759 ft 417 kts 40°
2026-05-06 22:37 33.38390 134.56366 27310 ft 414 kts 40°
2026-05-06 22:37 33.40566 134.58607 26879 ft 411 kts 40°
2026-05-06 22:38 33.42737 134.60840 26427 ft 409 kts 40°
2026-05-06 22:38 33.44887 134.63056 25976 ft 407 kts 39°
2026-05-06 22:38 33.47023 134.65259 25559 ft 405 kts 40°
2026-05-06 22:38 33.49153 134.67455 25134 ft 403 kts 40°
2026-05-06 22:39 33.50554 134.68901 24860 ft 401 kts 39°
2026-05-06 22:39 33.52664 134.71080 24435 ft 400 kts 40°
2026-05-06 22:39 33.54761 134.73248 24031 ft 398 kts 40°
2026-05-06 22:39 33.56853 134.75411 23616 ft 396 kts 40°
2026-05-06 22:40 33.58944 134.77560 23132 ft 395 kts 38°
2026-05-06 22:40 33.61227 134.79352 22630 ft 392 kts 30°
2026-05-06 22:40 33.63551 134.81049 22249 ft 388 kts 31°
2026-05-06 22:40 33.65844 134.82736 21872 ft 385 kts 31°
2026-05-06 22:41 33.70379 134.86077 21092 ft 380 kts 30°
2026-05-06 22:41 33.72623 134.87732 20709 ft 377 kts 30°
2026-05-06 22:41 33.74844 134.89371 20326 ft 375 kts 30°
2026-05-06 22:42 33.77061 134.91009 19951 ft 372 kts 30°
2026-05-06 22:42 33.79269 134.92639 19580 ft 370 kts 30°
2026-05-06 22:42 33.81458 134.94258 19193 ft 370 kts 30°
2026-05-06 22:42 33.83654 134.95882 18742 ft 370 kts 30°
2026-05-06 22:43 33.85812 134.97480 18401 ft 368 kts 30°
2026-05-06 22:43 33.87984 134.99088 17991 ft 366 kts 30°
2026-05-06 22:43 33.90142 135.00689 17610 ft 363 kts 30°
2026-05-06 22:43 33.92282 135.02275 17231 ft 360 kts 30°
2026-05-06 22:44 33.94410 135.03854 16857 ft 358 kts 30°
2026-05-06 22:44 33.96513 135.05415 16484 ft 355 kts 30°
2026-05-06 22:44 33.98618 135.06979 16101 ft 354 kts 30°
2026-05-06 22:44 34.00709 135.08533 15720 ft 352 kts 30°
2026-05-06 22:45 34.02793 135.10083 15347 ft 351 kts 30°
2026-05-06 22:45 34.04866 135.11626 14987 ft 349 kts 30°
2026-05-06 22:45 34.06928 135.13162 14619 ft 348 kts 30°
2026-05-06 22:45 34.08989 135.14697 14253 ft 347 kts 30°
2026-05-06 22:46 34.11042 135.16227 13893 ft 346 kts 30°
2026-05-06 22:46 34.13085 135.17752 13494 ft 345 kts 30°
2026-05-06 22:46 34.15123 135.19272 13104 ft 344 kts 30°
2026-05-06 22:46 34.17144 135.20782 12749 ft 341 kts 30°
2026-05-06 22:47 34.19158 135.22286 12386 ft 339 kts 30°
2026-05-06 22:47 34.21134 135.23763 12040 ft 337 kts 30°
2026-05-06 22:47 34.23085 135.25328 11648 ft 336 kts 33°
2026-05-06 22:47 34.25044 135.26937 11272 ft 335 kts 33°
2026-05-06 22:48 34.26966 135.28509 10937 ft 333 kts 32°
2026-05-06 22:48 34.28856 135.30052 10595 ft 331 kts 32°
2026-05-06 22:48 34.30763 135.31608 10304 ft 328 kts 32°
2026-05-06 22:48 34.32632 135.33134 10153 ft 320 kts 32°
2026-05-06 22:49 34.34451 135.34620 10072 ft 309 kts 32°
2026-05-06 22:49 34.36204 135.36052 10065 ft 300 kts 32°
2026-05-06 22:49 34.37930 135.37463 10006 ft 299 kts 32°
2026-05-06 22:49 34.39655 135.38874 9642 ft 302 kts 32°
2026-05-06 22:50 34.41402 135.40303 9212 ft 304 kts 32°
2026-05-06 22:50 34.43150 135.41739 8770 ft 301 kts 34°
2026-05-06 22:50 34.44576 135.43539 8317 ft 295 kts 59°
2026-05-06 22:50 34.45561 135.45689 7928 ft 289 kts 61°
2026-05-06 22:51 34.46538 135.47790 7520 ft 284 kts 61°
2026-05-06 22:51 34.47511 135.49893 7125 ft 287 kts 61°
2026-05-06 22:51 34.48484 135.52003 6706 ft 285 kts 62°
2026-05-06 22:51 34.49431 135.54061 6304 ft 281 kts 62°
2026-05-06 22:52 34.50376 135.56114 5871 ft 276 kts 62°
2026-05-06 22:52 34.51303 135.58132 5453 ft 272 kts 61°
2026-05-06 22:52 34.52208 135.60105 5147 ft 264 kts 62°
2026-05-06 22:52 34.53085 135.62018 4946 ft 257 kts 61°
2026-05-06 22:53 34.54006 135.63850 4671 ft 253 kts 49°
2026-05-06 22:53 34.55423 135.65030 4377 ft 247 kts 17°
2026-05-06 22:53 34.57090 135.65313 4138 ft 239 kts 359°
2026-05-06 22:53 34.58746 135.65352 3881 ft 235 kts 359°
2026-05-06 22:54 34.60322 135.65026 3620 ft 228 kts 331°
2026-05-06 22:54 34.61514 135.63919 3581 ft 210 kts 315°
2026-05-06 22:54 34.62581 135.62715 3546 ft 205 kts 315°
2026-05-06 22:54 34.63608 135.61542 3542 ft 205 kts 315°
2026-05-06 22:55 34.64651 135.60362 3393 ft 204 kts 315°
2026-05-06 22:55 34.65671 135.59171 3144 ft 202 kts 314°
2026-05-06 22:55 34.66638 135.58010 2905 ft 186 kts 314°
2026-05-06 22:55 34.67524 135.56941 2712 ft 177 kts 314°
2026-05-06 22:56 34.68394 135.55887 2474 ft 176 kts 314°
2026-05-06 22:56 34.69258 135.54840 2236 ft 175 kts 315°
2026-05-06 22:56 34.70107 135.53812 2000 ft 165 kts 315°
2026-05-06 22:56 34.70898 135.52854 1795 ft 158 kts 315°
2026-05-06 22:57 34.71666 135.51922 1571 ft 155 kts 315°
2026-05-06 22:57 34.72434 135.50994 1373 ft 153 kts 316°
2026-05-06 22:57 34.73186 135.50083 1159 ft 150 kts 315°
2026-05-06 22:57 34.73903 135.49211 937 ft 148 kts 316°
2026-05-06 22:58 34.74640 135.48302 794 ft 149 kts 315°
2026-05-06 22:58 34.75339 135.47407 648 ft 149 kts 314°
2026-05-06 22:58 34.76095 135.46507 472 ft 154 kts 317°
2026-05-06 22:58 34.76861 135.45610 224 ft 151 kts 317°
2026-05-06 22:59 34.77579 135.44754 49 ft 134 kts 315°
2026-05-06 22:59 34.78128 135.44089 48 ft 78 kts 315°
2026-05-06 22:59 34.78493 135.43645 47 ft 73 kts 315°
2026-05-06 22:59 34.78851 135.43212 48 ft 72 kts 315°
2026-05-06 23:00 34.79072 135.42948 46 ft 27 kts 326°
2026-05-06 23:00 34.79202 135.42938 48 ft 12 kts 41°
2026-05-06 23:00 34.79250 135.42992 51 ft 9 kts 43°
2026-05-06 23:00 34.79302 135.43056 49 ft 12 kts 45°
2026-05-06 23:01 34.79371 135.43142 50 ft 15 kts 51°
2026-05-06 23:01 34.79356 135.43255 46 ft 16 kts 135°
2026-05-06 23:01 34.79270 135.43360 52 ft 19 kts 136°
2026-05-06 23:01 34.79172 135.43480 48 ft 21 kts 135°
2026-05-06 23:02 34.79132 135.43570 52 ft 11 kts 85°
2026-05-06 23:02 34.79170 135.43632 49 ft 8 kts 18°
2026-05-06 23:02 34.79192 135.43649 52 ft 1 kts 52°